Location: Azat
(46.0765°N, 1.7600°E)
Time: 09:47:47
(UTC+00:00)

Nadezhda 1 Rocket - Pass Details

Date: 09 April 2020
Orbit: 941 x 1006 km, 83.0° (Epoch: 04 June)

Event Time Altitude Azimuth Distance (km) Brightness Sun altitude
Rises 19:16:03 0° 176° (S) 3,719 6.8 -8.0°
Reaches altitude 10° 19:18:36 10° 174° (S) 2,772 6.1 -8.5°
Maximum altitude 19:24:54 66° 94° (E) 1,087 4.0 -9.5°
Drops below altitude 10° 19:31:10 10° 14° (NNE) 2,762 6.5 -10.5°
Sets 19:33:42 0° 11° (NNE) 3,706 7.2 -10.9°
